Location: Astronomy Adventures Observing Site
(35.3995°N, 106.1279°W)
Time: 19:16:35
(UTC-06:00)

Envisat - Pass Details

Date: 23 January 2022
Orbit: 764 x 765 km, 98.2° (Epoch: 27 May)

Event Time Altitude Azimuth Distance (km) Brightness Sun altitude
Rises 05:53:48 0° 357° (N) 3,234 6.1 -15.5°
Reaches altitude 10° 05:56:30 10° 344° (NNW) 2,304 5.2 -15.0°
Maximum altitude 06:00:29 24° 292° (WNW) 1,553 4.0 -14.2°
Drops below altitude 10° 06:04:27 10° 240° (WSW) 2,294 5.1 -13.4°
Sets 06:07:07 0° 226° (SW) 3,217 5.9 -12.9°
